KROCKPEO

Guest
Details From KROC - GREATER ROCHESTER INTL
To KPEO - PENN YAN
Flight Number -
Tags generated
Created
Modified
Stats Distance 40 nm / 74 km
Max Altitude 0 ft / 0 m
Waypoints 3
Social Downloads 3
Likes 0
Share VATSIM

Download

Looking for another format? Having issues loading an existing format? Contact us
Advertisement - Login to hide

Notes

Basic altitude profile: - Ascent Rate: 2500ft/min - Ascent Speed: 250kts - Cruise Altitude: 35000ft - Cruise Speed: 420kts - Descent Rate: 1500ft/min - Descent Speed: 250kts Options: - Use NATs: yes - Use PACOTS: yes - Use low airways: yes - Use high airways: yes

Route

KROC ROC KPEO

ID Type Via Altitude Latitude Longitude Leg Dist Tot Dist Heading (true) Name
O KROC APT - 0 ft / 0 m 43.11932˚ -77.67045˚ - 0 nm - GREATER ROCHESTER INTL
ROC VOR - 0 ft / 0 m 43.11797˚ -77.67281˚ 0 nm 0 nm 232° / 232° ROCHESTER VOR-DME
O KPEO APT - 0 ft / 0 m 42.63810˚ -77.05305˚ 39 nm 39 nm 136° / 137° PENN YAN

Altitude Profile

Advertisement - Login to hide

KROC

Details ICAO KROC (ROC)
Name GREATER ROCHESTER INTL
Region United States
Timezone America/New_York (UTC-4.0)
Stats Elevation 559 ft / 170 m (AMSL)
Location 43.119316° -77.670453°
Runways 3
Magnetic Variation 11.427° W

METAR

KROC 280254Z 15005KT 10SM FEW250 22/19 A2993 RMK AO2 SLP136 T02170189 53001

Decode

TAF

KROC 280245Z 2803/2824 14007KT P6SM FEW250 FM280500 18004KT P6SM FEW250 FM281100 22005KT P6SM SCT060 FM281400 26006KT P6SM SCT250 FM281700 29010KT P6SM SCT250

Decode

Departure Runways

ID Width Length Bearing (true) Bearing (mag) Surface Threshold Offset Overrun Length
04 150 ft / 46 m 8,003 ft / 2,439 m 31.55° 42.98° Asphalt 0 ft / 0 m 200 ft / 61 m
07 110 ft / 34 m 3,993 ft / 1,217 m 63.75° 75.18° Asphalt 0 ft / 0 m 151 ft / 46 m
10 150 ft / 46 m 6,386 ft / 1,947 m 87.64° 99.07° Asphalt 174 ft / 53 m 351 ft / 107 m
22 150 ft / 46 m 8,003 ft / 2,439 m 211.56° 222.99° Asphalt 151 ft / 46 m 0 ft / 0 m
25 110 ft / 34 m 3,993 ft / 1,217 m 243.76° 255.19° Asphalt 0 ft / 0 m 151 ft / 46 m
28 150 ft / 46 m 6,386 ft / 1,947 m 267.66° 279.09° Asphalt 151 ft / 46 m 0 ft / 0 m

KPEO

Details ICAO KPEO
Name PENN YAN
Region United States
Timezone America/New_York (UTC-4.0)
Stats Elevation 990 ft / 302 m (AMSL)
Location 42.638095° -77.053054°
Runways 2
Magnetic Variation 11.679° W

METAR

KPEO 280253Z AUTO 19004KT 10SM CLR 18/17 A2998 RMK AO2 SLP147 T01830167 51006

Decode

TAF

Not found

Destination Runways

ID Width Length Bearing (true) Bearing (mag) Surface Threshold Offset Overrun Length
01 100 ft / 30 m 5,506 ft / 1,678 m 356.91° 8.59° Asphalt 0 ft / 0 m 0 ft / 0 m
10 50 ft / 15 m 3,553 ft / 1,083 m 88.57° 100.25° Asphalt 361 ft / 110 m 200 ft / 61 m
19 100 ft / 30 m 5,506 ft / 1,678 m 176.91° 188.59° Asphalt 0 ft / 0 m 0 ft / 0 m
28 50 ft / 15 m 3,553 ft / 1,083 m 268.58° 280.26° Asphalt 384 ft / 117 m 0 ft / 0 m